Flag for Australia Weather past 2 weeks in Alice Springs, Northern Territory, Australia

Now
48 °F

Clear.


Feels Like: 46 °F
Forecast: 45 / 63 °F
Wind: 5 mph from West

Location: Alice Springs Aerodrome

Current Time: Aug 1, 2014 at 6:07:43 AM

Latest Report: Aug 1, 2014 at 5:30 AM


Visibility: N/A

Pressure: 30.18 "Hg

Humidity: 50%

Dew point: 30 °F

Location of Alice SpringsLocation

Historic Weather in Alice Springs — Graph

°F

Alice Springs temperature yesterday

Maximum temperature yesterday: 79 °F (at 1:30 PM)
Minimum temperature yesterday: 41 °F (at 6:00 AM)
Average temperature yesterday: 61 °F

Past Weeks' High & Low Weather Summary

 TemperatureHumidityPressure
High79 °F (Jul 22, 2:00 PM)93% (Jul 17, 5:00 AM)30.36 "Hg (Jul 17, 5:00 AM)
Low36 °F (Jul 18, 7:00 AM)11% (Jul 21, 12:00 PM)29.92 "Hg (Jul 23, 2:30 PM)
Average57 °F50%30.17 "Hg
* Reported Jul 17 4:30 AM — Aug 1 4:30 AM, Alice Springs, Weather by CustomWeather, © 2014

Note: Actual official high and low records may vary slightly from our data, if they occured in-between our weather recording intervals... More about our weather records

Advertising

Alice Springs weather history for previous 24 hours

 ConditionsComfort  
Time TempWeatherWind HumidityBarometerVisibility
4:30 AM
Aug 1
52 °FClear.6 mph44%30.15 "HgN/A
4:00 AM52 °FClear.7 mph44%30.15 "HgN/A
3:30 AM52 °FClear.7 mph47%30.15 "HgN/A
3:00 AM54 °FClear.9 mph41%30.12 "HgN/A
2:30 AM54 °FClear.9 mph38%30.12 "HgN/A
2:00 AM52 °FClear.7 mph47%30.12 "HgN/A
1:30 AM52 °FClear.6 mph47%30.12 "HgN/A
1:00 AM50 °FClear.5 mph54%30.12 "HgN/A
12:30 AM52 °FClear.6 mph54%30.09 "HgN/A
11:30 PM
Jul 31
57 °FClear.6 mph36%30.09 "HgN/A
10:30 PM55 °FClear.6 mph44%30.09 "HgN/A
9:30 PM57 °FClear.6 mph41%30.09 "HgN/A
9:00 PM57 °FClear.5 mph44%30.09 "HgN/A
8:30 PM61 °FClear.6 mph34%30.07 "HgN/A
8:00 PM61 °FClear.No wind34%30.07 "HgN/A
7:30 PM64 °FClear.2 mph32%30.07 "HgN/A
7:00 PM66 °FClear.6 mph35%30.04 "HgN/A
6:30 PM68 °FClear.6 mph26%30.04 "HgN/A
6:00 PM73 °FClear.6 mph19%30.04 "HgN/A
5:30 PM77 °FSunny.8 mph15%30.01 "HgN/A
5:00 PM79 °FSunny.10 mph15%30.01 "Hg10 mi
4:30 PM79 °FSunny.13 mph12%30.01 "Hg10 mi
4:00 PM79 °FSunny.15 mph12%30.01 "Hg10 mi
3:30 PM79 °FSunny.12 mph12%30.01 "Hg10 mi
3:00 PM79 °FSunny.13 mph12%30.04 "Hg10 mi
2:30 PM77 °FSunny.15 mph13%30.04 "Hg10 mi
2:00 PM79 °FSunny.10 mph12%30.07 "Hg10 mi
1:30 PM79 °FSunny.8 mph13%30.07 "Hg10 mi
1:00 PM77 °FPassing clouds.10 mph14%30.07 "HgN/A
12:30 PM75 °FPassing clouds.12 mph14%30.09 "HgN/A
12:00 PM77 °FSunny.9 mph12%30.12 "Hg10 mi
11:30 AM75 °FSunny.9 mph13%30.12 "Hg10 mi
11:00 AM75 °FSunny.9 mph12%30.12 "HgN/A
10:30 AM70 °FPassing clouds.5 mph17%30.15 "HgN/A
10:00 AM68 °FSunny.5 mph21%30.15 "Hg10 mi
9:30 AM66 °FSunny.6 mph22%30.15 "Hg10 mi
9:00 AM61 °FSunny.No wind31%30.15 "Hg10 mi
8:30 AM54 °FSunny.No wind47%30.15 "Hg10 mi
8:00 AM48 °FSunny.5 mph54%30.12 "Hg10 mi
7:30 AM45 °FSunny.6 mph53%30.12 "Hg10 mi
6:30 AM41 °FClear.6 mph66%30.12 "Hg10 mi
6:00 AM41 °FClear.6 mph70%30.12 "Hg10 mi
Weather by CustomWeather, © 2014

See weather overviewHow to use our weather pages